SKYTERRA 1

Last updated on Thu Sep 10 2026 00:02:56 GMT+0000 (Coordinated Universal Time)

1 37218U 10061A 26252.56555488 -.00000136 00000+0 00000+0 0 9991 2 37218 5.3023 50.6574 0000756 130.2536 270.0220 1.00271601 58049
UTC large
Height (km)
Speed (km/s)
/
Latitude / Longitude
Inclination (degrees)
Orbital Period (minutes)
Azimuth
Elevation
Range (km)
Doppler Factor

Next 0 passes for location: London (51.5072 / 0.1276)

No passes found over London.
SKYTERRA 1